Location: Crescent
(42.8242°N, 73.7329°W)
Time: 07:39:45
(UTC+00:00)

Vanguard 1 Rocket - Pass Details

Date: 19 February 2026
Orbit: 653 x 4214 km, 34.3° (Epoch: 12 March)

Event Time Altitude Azimuth Distance (km) Brightness Sun altitude
Rises 20:01:00 0° 260° (W) 4,709 12.0 23.3°
Reaches altitude 10° 20:03:31 10° 256° (WSW) 4,051 11.9 23.0°
Maximum altitude 20:14:58 62° 179° (S) 2,921 10.6 21.4°
Drops below altitude 10° 20:36:33 10° 106° (ESE) 7,105 11.6 18.3°
Sets 20:42:48 0° 104° (ESE) 8,360 11.9 17.3°
